NSI Airport (San Nicolas Island Nolf) Information

FAA: NSI - ICAO: KNSI

NSI Airport Location

State California
County Santa Cruz
City San Nicolas Island
NSI Airport is 0 miles east of San Nicolas Island, CA.
Latitude 33-14-23.2150N
Longitude 119-27-29.5330W
Elevation 506ft

KNSI Airport METARs

METAR KNSI 060653Z AUTO 30019G26KT 10SM CLR 15/13 A2996 RMK AO2 PK WND 30026/0650 SLP139 T01500133 PWINO PNO $
Altimeter 29.96"
Temperature 15.0°C (59.0°F)
Wind 300° at 19KT with gusts to 26KT
Clouds Skies are clear.
Visibility 10.0mi
Time observed: 2022-07-06T06:53:00Z

NSI Airport Details

Status Operational
Activation May 1941
Ownership Military - Navy
Usage Private
Chart LOS ANGELES
ATC on-site Yes
Beacon schedule sunset-sunrise
Beacon color split clear green

NSI Airport Contacts

Owner US NAVY
Owner address OCEANOGRAPHIC OFC - CODE 3142, WASHINGTON, DC 20373
Owner phone N/A
Manager TONY WEBBER
Manager address 1745 N. MARSHALL AVENUE, EL CAJON, CA 92020
Manager phone 619-956-4930

NSI Airport (San Nicolas Island Nolf) Radio Frequencies

NSI (Airport) Radio Frequencies

UNICOM N/A
Common traffic advisory frequency (CTAF) N/A